Total_Precipitation_Accumulation
2.13 2.31 2.27 2.16 2.06 2.14 2.06 1.90 1.69 1.69 1.63 1.45 1.29 1.31 1.33 1.33 1.30 1.41 1.53 1.41 1.44 1.67 2.08 2.37 2.48 2.42 2.37 2.37 2.32 2.21 2.06 1.93 1.82 1.66 1.52 1.33 1.19 1.13 1.13 1.16 1.18 1.15 1.13
2.66 2.82 2.78 2.62 2.39 2.37 2.31 2.21 2.14 2.19 2.09 2.00 1.81 1.68 1.57 1.60 1.54 1.57 1.75 1.78 1.65 1.67 2.05 2.53 2.78 2.78 2.70 2.69 2.52 2.32 2.25 2.22 2.16 2.03 1.90 1.69 1.47 1.36 1.30 1.27 1.28 1.25 1.22
3.12 3.21 3.24 2.97 2.74 2.68 2.77 2.69 2.60 2.57 2.32 2.22 2.13 2.03 1.87 1.73 1.68 1.69 1.87 2.14 2.03 2.00 2.14 2.25 2.40 2.57 2.75 2.93 2.97 2.80 2.60 2.46 2.38 2.30 2.20 2.08 1.88 1.68 1.57 1.51 1.49 1.42 1.35
3.23 3.33 3.34 3.21 3.04 2.94 3.15 3.26 3.18 3.08 2.91 2.83 2.64 2.37 2.09 1.99 1.97 2.07 2.15 2.32 2.52 2.46 2.44 2.28 2.16 2.27 2.61 2.91 3.08 3.13 2.97 2.71 2.55 2.51 2.46 2.38 2.17 2.00 1.83 1.75 1.73 1.64 1.51
3.58 3.63 3.56 3.54 3.51 3.53 3.51 3.30 3.43 3.32 3.30 3.17 2.75 2.50 2.19 2.10 2.20 2.17 2.29 2.33 2.47 2.49 2.52 2.34 2.23 2.22 2.41 2.76 2.95 3.18 3.20 3.10 2.96 2.82 2.72 2.66 2.53 2.32 2.10 1.95 1.86 1.76 1.63
3.97 4.17 4.16 4.07 4.05 4.00 3.79 3.69 3.66 3.47 3.31 3.18 2.74 2.48 2.25 2.10 2.09 2.15 2.17 2.15 2.14 2.11 2.14 2.23 2.43 2.27 2.34 2.46 2.52 2.77 3.04 3.23 3.13 3.00 2.92 2.87 2.72 2.48 2.21 2.07 1.99 1.93 1.85
4.72 4.75 4.57 4.35 4.22 4.20 4.10 4.04 3.85 3.63 3.36 3.21 3.10 2.75 2.27 2.00 1.99 1.97 1.96 1.95 1.93 1.95 2.02 2.12 2.16 2.14 2.12 2.19 2.15 2.29 2.55 2.87 3.01 3.07 3.11 3.03 2.91 2.73 2.47 2.25 2.15 2.09 2.03
4.95 4.87 4.89 4.81 4.60 4.40 4.20 4.02 3.94 3.77 3.43 3.28 3.22 3.09 2.64 2.23 1.86 1.62 1.63 1.60 1.62 1.79 1.81 1.80 1.92 2.02 2.02 2.08 2.09 2.22 2.36 2.52 2.75 2.88 2.87 2.81 2.75 2.77 2.74 2.61 2.43 2.30 2.22
5.16 5.01 4.87 4.64 4.49 4.36 4.19 3.99 3.80 3.70 3.47 3.31 3.21 3.25 2.96 2.55 2.07 1.72 1.52 1.43 1.41 1.52 1.57 1.63 1.68 1.77 1.87 1.96 1.99 2.12 2.20 2.21 2.39 2.57 2.63 2.66 2.62 2.59 2.60 2.60 2.58 2.52 2.44
4.79 4.54 4.41 4.29 4.11 3.82 3.60 3.43 3.34 3.21 3.08 2.93 2.92 2.82 2.67 2.51 2.46 2.22 1.90 1.73 1.65 1.61 1.60 1.57 1.60 1.70 1.75 1.88 2.04 2.10 2.05 2.03 2.18 2.28 2.35 2.44 2.50 2.56 2.59 2.64 2.62 2.59 2.60
4.17 3.91 3.76 3.58 3.36 3.01 2.66 2.53 2.61 2.69 2.68 2.60 2.59 2.60 2.56 2.41 2.35 2.28 2.13 1.95 1.85 1.74 1.67 1.72 1.76 1.77 1.74 1.77 1.82 1.98 1.96 1.80 1.90 1.98 2.12 2.24 2.30 2.40 2.48 2.54 2.59 2.60 2.62
3.58 3.22 2.91 2.61 2.38 2.21 2.01 1.95 1.97 2.06 2.23 2.34 2.47 2.49 2.49 2.39 2.33 2.32 2.21 2.14 2.05 1.92 1.77 1.68 1.70 1.72 1.71 1.72 1.72 1.87 1.68 1.60 1.58 1.63 1.75 1.87 1.93 2.00 2.09 2.24 2.42 2.54 2.67
2.83 2.53 2.23 2.11 1.96 1.85 1.77 1.72 1.69 1.66 1.76 1.91 2.05 2.18 2.27 2.27 2.28 2.33 2.40 2.37 2.18 2.03 1.92 1.78 1.67 1.64 1.65 1.67 1.68 1.75 1.57 1.47 1.40 1.39 1.36 1.42 1.46 1.55 1.70 1.86 2.03 2.19 2.33
2.11 1.85 1.63 1.51 1.48 1.50 1.43 1.46 1.49 1.49 1.51 1.57 1.65 1.82 1.96 2.01 2.05 2.06 2.09 2.17 2.20 2.09 1.89 1.76 1.69 1.59 1.49 1.41 1.43 1.42 1.25 1.28 1.17 1.14 1.14 1.16 1.18 1.19 1.24 1.31 1.40 1.50 1.58
1.47 1.30 1.20 1.19 1.14 1.14 1.17 1.17 1.18 1.23 1.32 1.37 1.37 1.44 1.53 1.59 1.66 1.74 1.82 1.88 1.99 2.03 1.88 1.67 1.59 1.48 1.32 1.18 1.21 1.03 0.98 1.02 0.92 0.87 0.85 0.88 0.89 0.93 0.96 1.01 1.08 1.14 1.18
1.11 1.04 1.00 0.94 0.86 0.82 0.82 0.87 0.92 0.97 1.03 1.12 1.15 1.17 1.24 1.28 1.38 1.47 1.59 1.67 1.69 1.75 1.74 1.52 1.33 1.22 1.14 1.01 1.04 0.91 0.92 0.93 0.78 0.76 0.72 0.72 0.77 0.84 0.86 0.89 0.92 0.95 0.98
0.83 0.77 0.71 0.67 0.65 0.66 0.69 0.74 0.79 0.83 0.87 0.93 1.01 1.06 1.09 1.07 1.14 1.21 1.24 1.28 1.40 1.47 1.48 1.34 1.19 1.12 1.08 0.99 0.95 0.95 0.91 0.84 0.75 0.77 0.73 0.72 0.72 0.73 0.74 0.75 0.76 0.80 0.87
0.67 0.60 0.54 0.52 0.52 0.54 0.57 0.60 0.64 0.68 0.77 0.82 0.86 0.90 0.91 0.91 0.94 0.98 1.02 1.03 1.12 1.21 1.27 1.28 1.20 1.13 1.07 1.00 0.94 0.95 0.79 0.66 0.65 0.69 0.64 0.59 0.59 0.59 0.61 0.62 0.62 0.63 0.65
0.63 0.56 0.50 0.49 0.47 0.46 0.47 0.48 0.50 0.53 0.61 0.70 0.74 0.78 0.79 0.79 0.77 0.75 0.80 0.87 0.94 1.02 1.17 1.18 1.09 1.02 0.95 0.90 0.93 0.85 0.77 0.83 0.63 0.58 0.54 0.49 0.48 0.47 0.47 0.48 0.49 0.50 0.50
0.51 0.50 0.48 0.47 0.44 0.41 0.41 0.40 0.39 0.43 0.48 0.53 0.56 0.60 0.64 0.67 0.68 0.69 0.69 0.81 0.89 1.01 1.09 1.11 1.04 0.95 0.91 0.87 0.98 0.97 0.91 0.87 0.71 0.50 0.51 0.45 0.44 0.42 0.43 0.43 0.43 0.42 0.41
0.46 0.43 0.42 0.42 0.37 0.32 0.28 0.28 0.32 0.38 0.45 0.46 0.49 0.48 0.47 0.51 0.59 0.62 0.62 0.70 0.82 0.97 0.99 0.99 0.99 0.95 0.89 0.93 0.96 0.91 0.92 0.88 0.76 0.61 0.62 0.54 0.53 0.57 0.60 0.55 0.49 0.47 0.41
0.44 0.42 0.41 0.39 0.34 0.26 0.25 0.25 0.26 0.35 0.45 0.48 0.46 0.43 0.39 0.36 0.40 0.48 0.51 0.58 0.71 0.82 0.90 0.95 0.95 0.94 0.91 0.95 1.00 0.97 0.99 1.00 0.96 0.72 0.72 0.64 0.58 0.69 0.71 0.66 0.58 0.46 0.39
0.49 0.45 0.42 0.41 0.43 0.36 0.24 0.20 0.22 0.32 0.46 0.45 0.43 0.45 0.39 0.36 0.42 0.50 0.50 0.48 0.53 0.56 0.66 0.83 0.95 0.98 1.03 1.11 1.20 1.16 1.13 1.11 1.09 0.88 0.91 0.85 0.71 0.77 0.64 0.58 0.61 0.51 0.43
0.51 0.49 0.46 0.47 0.51 0.40 0.26 0.17 0.21 0.31 0.41 0.37 0.36 0.40 0.47 0.49 0.42 0.44 0.49 0.53 0.58 0.59 0.61 0.65 0.84 0.92 0.92 1.01 1.12 1.17 1.17 1.12 1.09 1.04 1.07 1.07 0.82 0.78 0.68 0.86 0.85 0.70 0.56
0.55 0.53 0.52 0.55 0.57 0.45 0.30 0.23 0.26 0.34 0.40 0.39 0.37 0.34 0.34 0.38 0.37 0.43 0.52 0.66 0.69 0.73 0.59 0.62 0.72 0.78 0.81 0.87 0.93 1.02 1.16 1.26 1.23 1.11 1.05 1.08 0.96 0.85 0.85 1.06 1.03 0.97 0.79
0.52 0.47 0.50 0.58 0.57 0.49 0.34 0.27 0.28 0.32 0.39 0.45 0.48 0.46 0.37 0.34 0.36 0.40 0.53 0.70 0.78 0.78 0.80 0.96 1.07 1.06 1.00 0.98 0.94 1.04 1.22 1.30 1.31 1.26 1.09 1.09 1.12 1.05 1.08 1.12 1.18 1.12 1.04